Weather History for Eveleth, MN

Change the Weather History Date:

Wednesday, November 21, 2012

  Actual Average Record
Temperature  
Mean Temperature 36 °F -  
Max Temperature 50 °F 31 °F 54 °F (1990)
Min Temperature 23 °F 17 °F -2 °F (1998)
Degree Days  
Heating Degree Days 28    
Moisture  
Dew Point 29 °F    
Average Humidity 87    
Maximum Humidity 100    
Minimum Humidity 54    
Precipitation  
Precipitation 0.00 in - - ()
Sea Level Pressure  
Sea Level Pressure 29.85 in    
Wind  
Wind Speed 1 mph (ENE)    
Max Wind Speed 6 mph    
Max Gust Speed -    
Visibility 8 miles    
Events      
Averages and records for this station are not official NWS values.
T = Trace of Precipitation, MM = Missing Value Source: NWS Daily Summary

Daily Weather History Graph

Daily Weather History Graph

Search for Another Location

Airport:

Trip Planner

Search our weather history database for the weather conditions in past years. The results will help you decide how hot, cold, wet, or windy it might be!

Date:

Astronomy

Nov. 21, 2012 Rise Set
Actual Time 7:24 AM CST 4:27 PM CST
Civil Twilight 6:49 AM CST 5:01 PM CST
Nautical Twilight 6:12 AM CST 5:39 PM CST
Astronomical Twilight 5:35 AM CST 6:16 PM CST
Moon 1:07 PM CST (11/21) 12:17 AM CST (11/21)
Length of Visible Light 10h 11m
Length of Day
9h 03m
First Quarter, 62% of the Moon is Illuminated
Nov 21
First Quarter
Nov 28
Full
Dec 6
Last Quarter
Dec 13
New
Dec 19
First Quarter

Hourly Weather History & Observations

Time (CST) Temp. Windchill Dew Point Humidity Pressure Visibility Wind Dir Wind Speed Gust Speed Precip Events Conditions
12:09 AM 23.0 °F - 21.2 °F 93% 29.98 in 10.0 mi Calm Calm - N/A   Clear
12:29 AM 24.8 °F 20.5 °F 23.0 °F 93% 29.98 in 7.0 mi NE 3.5 mph - N/A   Clear
12:50 AM 24.8 °F - 23.0 °F 93% 29.98 in 5.0 mi Calm Calm - N/A   Clear
1:09 AM 23.0 °F 17.0 °F 23.0 °F 100% 29.97 in 7.0 mi NE 4.6 mph - N/A   Clear
1:30 AM 26.6 °F 21.2 °F 23.0 °F 86% 29.97 in 5.0 mi NNE 4.6 mph - N/A   Clear
1:50 AM 23.0 °F - 23.0 °F 100% 29.97 in 10.0 mi Calm Calm - N/A   Clear
2:09 AM 23.0 °F - 23.0 °F 100% 29.96 in 5.0 mi Calm Calm - N/A   Clear
2:29 AM 23.0 °F 18.4 °F 21.2 °F 93% 29.96 in 7.0 mi NNE 3.5 mph - N/A   Clear
2:50 AM 23.0 °F - 21.2 °F 93% 29.95 in 5.0 mi Calm Calm - N/A   Clear
3:09 AM 23.0 °F 18.4 °F 21.2 °F 93% 29.94 in 10.0 mi ENE 3.5 mph - N/A   Clear
3:29 AM 23.0 °F - 21.2 °F 93% 29.93 in 10.0 mi Calm Calm - N/A   Clear
3:50 AM 23.0 °F - 21.2 °F 93% 29.92 in 10.0 mi Calm Calm - N/A   Clear
4:09 AM 23.0 °F - 21.2 °F 93% 29.93 in 7.0 mi Calm Calm - N/A   Clear
4:30 AM 23.0 °F - 21.2 °F 93% 29.92 in 7.0 mi Calm Calm - N/A   Clear
4:50 AM 23.0 °F - 21.2 °F 93% 29.93 in 10.0 mi Calm Calm - N/A   Clear
5:09 AM 23.0 °F - 21.2 °F 93% 29.92 in 10.0 mi Calm Calm - N/A   Clear
5:30 AM 23.0 °F - 21.2 °F 93% 29.91 in 7.0 mi Calm Calm - N/A   Clear
5:50 AM 23.0 °F 18.4 °F 21.2 °F 93% 29.91 in 10.0 mi NNE 3.5 mph - N/A   Clear
6:09 AM 23.0 °F - 21.2 °F 93% 29.91 in 7.0 mi Calm Calm - N/A   Clear
6:30 AM 23.0 °F - 21.2 °F 93% 29.91 in 10.0 mi Calm Calm - N/A   Clear
6:50 AM 24.8 °F - 23.0 °F 93% 29.91 in 10.0 mi Calm Calm - N/A   Clear
7:09 AM 26.6 °F - 23.0 °F 86% 29.91 in 7.0 mi Calm Calm - N/A   Clear
7:30 AM 26.6 °F - 23.0 °F 86% 29.91 in 7.0 mi Calm Calm - N/A   Clear
7:49 AM 26.6 °F - 26.6 °F 100% 29.91 in 7.0 mi Calm Calm - N/A   Clear
8:09 AM 28.4 °F - 26.6 °F 93% 29.91 in 5.0 mi Calm Calm - N/A   Clear
8:30 AM 30.2 °F - 30.2 °F 100% 29.91 in 4.0 mi Calm Calm - N/A   Clear
8:49 AM 32.0 °F - 32.0 °F 100% 29.91 in 4.0 mi Calm Calm - N/A   Clear
9:09 AM 32.0 °F - 32.0 °F 100% 29.91 in 3.0 mi Calm Calm - N/A   Clear
9:30 AM 32.0 °F - 32.0 °F 100% 29.91 in 4.0 mi Calm Calm - N/A   Clear
9:49 AM 33.8 °F 30.8 °F 32.0 °F 93% 29.92 in 4.0 mi NE 3.5 mph - N/A   Clear
10:09 AM 33.8 °F - 32.0 °F 93% 29.91 in 4.0 mi Calm Calm - N/A   Clear
10:30 AM 35.6 °F - 33.8 °F 93% 29.91 in 5.0 mi Calm Calm - N/A   Clear
10:49 AM 35.6 °F - 33.8 °F 93% 29.90 in 7.0 mi Calm Calm - N/A   Clear
11:08 AM 37.4 °F - 32.0 °F 81% 29.90 in 10.0 mi Calm Calm - N/A   Clear
11:29 AM 39.2 °F - 32.0 °F 75% 29.89 in 10.0 mi Calm Calm - N/A   Clear
11:49 AM 39.2 °F - 32.0 °F 75% 29.88 in 10.0 mi Calm Calm - N/A   Clear
12:10 PM 42.8 °F - 33.8 °F 70% 29.88 in 10.0 mi Calm Calm - N/A   Clear
12:29 PM 42.8 °F - 32.0 °F 66% 29.87 in 10.0 mi Calm Calm - N/A   Clear
12:49 PM 42.8 °F - 33.8 °F 70% 29.87 in 10.0 mi Calm Calm - N/A   Clear
1:10 PM 42.8 °F 40.1 °F 32.0 °F 66% 29.86 in 10.0 mi South 4.6 mph - N/A   Clear
1:29 PM 44.6 °F 42.2 °F 32.0 °F 61% 29.85 in 10.0 mi South 4.6 mph - N/A   Clear
1:50 PM 46.4 °F 44.3 °F 32.0 °F 57% 29.84 in 10.0 mi SSE 4.6 mph - N/A   Clear
2:10 PM 46.4 °F - 32.0 °F 57% 29.84 in 10.0 mi Calm Calm - N/A   Clear
2:29 PM 50.0 °F - 33.8 °F 54% 29.84 in 10.0 mi SE 3.5 mph - N/A   Clear
2:50 PM 46.4 °F 45.2 °F 32.0 °F 57% 29.84 in 10.0 mi South 3.5 mph - N/A   Clear
3:10 PM 50.0 °F - 33.8 °F 54% 29.84 in 10.0 mi Calm Calm - N/A   Clear
3:29 PM 50.0 °F - 33.8 °F 54% 29.83 in 10.0 mi Calm Calm - N/A   Clear
3:55 PM 46.4 °F 45.2 °F 32.0 °F 57% 29.82 in 10.0 mi ESE 3.5 mph - N/A   Clear
4:10 PM 46.4 °F - 32.0 °F 57% 29.83 in 10.0 mi Calm Calm - N/A   Clear
4:29 PM 44.6 °F - 32.0 °F 61% 29.82 in 10.0 mi Calm Calm - N/A   Clear
4:49 PM 37.4 °F - 32.0 °F 81% 29.82 in 10.0 mi Calm Calm - N/A   Clear
5:10 PM 35.6 °F - 30.2 °F 81% 29.81 in 10.0 mi Calm Calm - N/A   Clear
5:29 PM 33.8 °F - 30.2 °F 87% 29.81 in 10.0 mi Calm Calm - N/A   Clear
5:50 PM 33.8 °F - 32.0 °F 93% 29.80 in 10.0 mi Calm Calm - N/A   Clear
6:09 PM 32.0 °F - 30.2 °F 93% 29.79 in 10.0 mi Calm Calm - N/A   Clear
6:30 PM 33.8 °F 29.6 °F 32.0 °F 93% 29.79 in 10.0 mi NE 4.6 mph - N/A   Clear
6:50 PM 30.2 °F 26.7 °F 28.4 °F 93% 29.77 in 10.0 mi NE 3.5 mph - N/A   Clear
7:09 PM 32.0 °F 27.5 °F 32.0 °F 100% 29.77 in 10.0 mi NE 4.6 mph - N/A   Clear
7:30 PM 30.2 °F 26.7 °F 28.4 °F 93% 29.77 in 10.0 mi ENE 3.5 mph - N/A   Clear
7:50 PM 30.2 °F 26.7 °F 28.4 °F 93% 29.76 in 7.0 mi NE 3.5 mph - N/A   Clear
8:09 PM 32.0 °F 28.7 °F 32.0 °F 100% 29.75 in 10.0 mi ENE 3.5 mph - N/A   Clear
8:30 PM 32.0 °F 27.5 °F 32.0 °F 100% 29.74 in 7.0 mi NE 4.6 mph - N/A   Clear
8:50 PM 32.0 °F 28.7 °F 32.0 °F 100% 29.72 in 10.0 mi NE 3.5 mph - N/A   Clear
9:09 PM 32.0 °F 27.5 °F 32.0 °F 100% 29.71 in 7.0 mi NE 4.6 mph - N/A   Clear
9:30 PM 33.8 °F 29.6 °F 32.0 °F 93% 29.70 in 7.0 mi ENE 4.6 mph - N/A   Clear
9:50 PM 32.0 °F 27.5 °F 32.0 °F 100% 29.68 in 10.0 mi ENE 4.6 mph - N/A   Clear
10:09 PM 32.0 °F 27.5 °F 32.0 °F 100% 29.67 in 7.0 mi ENE 4.6 mph - N/A   Clear
10:30 PM 33.8 °F 29.6 °F 32.0 °F 93% 29.66 in 7.0 mi ENE 4.6 mph - N/A   Clear
10:50 PM 32.0 °F 28.7 °F 30.2 °F 93% 29.65 in 7.0 mi ENE 3.5 mph - N/A   Clear
11:09 PM 32.0 °F 27.5 °F 32.0 °F 100% 29.64 in 7.0 mi NE 4.6 mph - N/A   Clear
11:30 PM 33.8 °F 28.6 °F 32.0 °F 93% 29.63 in 10.0 mi NE 5.8 mph - N/A   Clear
11:50 PM 32.0 °F 27.5 °F 32.0 °F 100% 29.62 in 7.0 mi NE 4.6 mph - N/A   Clear